Regional Weather Roundup
Issued by NWS

Home | Current Version | Previous Version | Text Only | Print | Product List | Glossary Off
Versions: 1 2 3 4 5 6 7 8 9 10 11 12 13 14 15 16 17 18 19 20 21 22 23 24 25 26 27 28 29 30 31 32 33 34 35 36 37 38 39 40 41 42 43 44 45 46 47 48 49 50

000
ASUS43 KBIS 221402
RWRND

NORTH DAKOTA REGIONAL WEATHER ROUNDUP
NATIONAL WEATHER SERVICE BISMARCK ND
800 AM CST WED NOV 22 2017

NOTE: "FAIR" INDICATES FEW OR NO CLOUDS BELOW 12,000 FEET WITH NO
SIGNIFICANT WEATHER AND/OR OBSTRUCTIONS TO VISIBILITY.


NDZ001>003-009>011-017-221500-
NORTHWEST NORTH DAKOTA

CITY           SKY/WX    TMP DP  RH WIND       PRES   REMARKS
WILLISTON      CLOUDY    27  18  69 S5        29.82F
MINOT          CLOUDY    23  14  68 SE8       29.86F WCI  14
MINOT AFB      CLOUDY    21  12  67 SE8       29.85F WCI  12
$$

NDZ018>021-031>035-040>046-221500-
SOUTHWEST NORTH DAKOTA

CITY           SKY/WX    TMP DP  RH WIND       PRES   REMARKS
BISMARCK       CLOUDY    24  15  68 SE10      29.97F WCI  14
DICKINSON      CLOUDY    37  25  61 SW9       29.85F
GARRISON         N/A     24  16  71 S10       29.90F WCI  14
HETTINGER ARPT CLOUDY    29  19  66 SW6       29.94F
$$

NDZ004>008-012>016-024-026-027-054-221500-
NORTHEAST NORTH DAKOTA

CITY           SKY/WX    TMP DP  RH WIND       PRES   REMARKS
GRAND FORKS    CLOUDY    16  11  80 S15       30.13F WCI   1
GRND FRKS AFB  PTCLDY    16   9  75 S12       30.10F WCI   3
DEVILS LAKE    CLOUDY    17  10  74 S10       30.00F WCI   5
$$

NDZ022-023-025-028>030-036>039-047>053-221500-
SOUTHEAST NORTH DAKOTA

CITY           SKY/WX    TMP DP  RH WIND       PRES   REMARKS
FARGO          CLOUDY    15   9  76 S14       30.18F WCI   0
JAMESTOWN      CLOUDY    15  10  80 S12       30.05F WCI   2
$$





USA.gov is the U.S. government's official web portal to all federal, state and local government web resources and services.